sat.trackr.live / text

‹ back to catalog

ZHUHAI-1 03C

NORAD 44537 · 2019-060D

PAYLOAD ACTIVE UNKNOWN

§ Identity

Operator
Country
PRC
Launch date
2019-09-19
Launch site
JSC
Launch vehicle
Mass (kg)
RCS (m²)

External: N2YO · Heavens-Above · Gunter

§ Orbital elements

Epoch: 2026-05-25T04:09:04.275360Z

Period
89.71 min
Inclination
97.5366°
Eccentricity
0.0007960
Mean motion
16.05168351 rev/d
Perigee alt
254.8 km
Apogee alt
265.4 km
Semi-major
6,638.3 km
B*
9.3800e-4
RAAN
315.1795°
Arg perigee
282.7527°
Mean anomaly
77.2864°
Rev number
37,358

§ Raw data

ZHUHAI-1 03C1 44537U 19060D   26145.17296615  .00643524  20432-3  93800-3 0  99952 44537  97.5366 315.1795 0007960 282.7527  77.2864 16.05168351373583

JSON: /api/v1/satellites/44537 · /tle

For live sub-satellite position, see the globe view (requires WebGL).

§ Visibility from observer

Set your observer location to see the next 7 days of passes ≥ 10°. The values pass through the URL so the page stays shareable.

No JS? Fill the form by hand. The geolocation button needs JavaScript.

§ Radio — SatNOGS DB

ModeDescriptionDownlinkUplink
FM S-band telemetry 2.254 GHz

1 transmitter · refreshed weekly from db.satnogs.org